This is the latest recevied weather packets stored in our database for station/object KE0PRS. If no packets are shown the sender has not sent any weather packets the latest 10 day(s).
| Time | Temp. | Humidity | Pressure | Rain* | Wind** | Luminosity | Snow |
|---|---|---|---|---|---|---|---|
| 1787517300 | 32.78° C | 42% | 1017.4 hPa | 0 mm | - | 800 W/m² | - |
| 1787516999 | 32.78° C | 40% | 1017.2 hPa | 0 mm | - | 632 W/m² | - |
| 1787516694 | 32.78° C | 41% | 1017.4 hPa | 0 mm | - | 779 W/m² | - |
| 1787516389 | 31.67° C | 42% | 1017.8 hPa | 0 mm | - | 880 W/m² | - |
| 1787516084 | 31.67° C | 43% | 1017.7 hPa | 0 mm | - | 452 W/m² | - |
| 1787515779 | 32.22° C | 42% | 1017.8 hPa | 0 mm | - | 451 W/m² | - |
| 1787515476 | 32.78° C | 41% | 1017.9 hPa | 0 mm | - | 533 W/m² | - |
| 1787515175 | 32.78° C | 42% | 1017.9 hPa | 0 mm | - | 942 W/m² | - |
| 1787514872 | 32.22° C | 41% | 1018 hPa | 0 mm | - | 961 W/m² | - |
| 1787514573 | 32.22° C | 43% | 1018.1 hPa | 0 mm | - | 995 W/m² | - |
| 1787514269 | 31.67° C | 44% | 1018.1 hPa | 0 mm | - | 678 W/m² | - |
| 1787513968 | 31.67° C | 43% | 1018.4 hPa | 0 mm | - | 565 W/m² | - |
| 1787513663 | 31.11° C | 45% | 1018.2 hPa | 0 mm | - | 489 W/m² | - |
| 1787513359 | 31.11° C | 43% | 1018.4 hPa | 0 mm | - | 393 W/m² | - |
| 1787513056 | 31.67° C | 45% | 1018.4 hPa | 0 mm | - | 399 W/m² | - |
| 1787512752 | 31.67° C | 45% | 1018.6 hPa | 0 mm | - | 603 W/m² | - |
| 1787512448 | 32.22° C | 45% | 1018.9 hPa | 0 mm | - | 1026 W/m² | - |
| 1787512143 | 31.67° C | 46% | 1018.6 hPa | 0 mm | - | 785 W/m² | - |
| 1787511838 | 31.67° C | 46% | 1018.7 hPa | 0 mm | - | 895 W/m² | - |
| 1787511537 | 31.67° C | 47% | 1018.7 hPa | 0 mm | - | 700 W/m² | - |
| 1787511236 | 31.67° C | 46% | 1018.9 hPa | 0 mm | - | 827 W/m² | - |
| 1787510936 | 31.67° C | 47% | 1018.9 hPa | 0 mm | - | 843 W/m² | - |
| 1787510631 | 30.56° C | 48% | 1019.2 hPa | 0 mm | - | 868 W/m² | - |
| 1787510326 | 30° C | 49% | 1019.2 hPa | 0 mm | - | 503 W/m² | - |
| 1787510023 | 30° C | 50% | 1019.1 hPa | 0 mm | - | 543 W/m² | - |
* Rain latest hour (hover to see other rain measurements)
** Current wind speed in m/s (hover to see current wind gust speed)